Location: Kikino
(54.4440°N, 112.0940°W)
Time: 07:38:23
(UTC+00:00)

Envisat - Visible Passes

Search period start: 14 April 2024 00:00
Search period end: 24 April 2024 00:00
Orbit: 762 x 764 km, 98.3° (Epoch: 13 April)

Date Brightness Start Highest point End Pass type
(mag) Time Alt. Az. Time Alt. Az. Time Alt. Az.
14 Apr 5.5 09:25:54 10° NE 09:28:40 14° E 09:31:25 10° ESE visible
14 Apr 3.1 11:03:24 10° NNE 11:08:31 78° ESE 11:13:35 10° SSW visible
15 Apr 4.1 10:26:13 10° NNE 10:31:02 41° E 10:35:49 10° SSE visible
16 Apr 5.1 09:49:25 10° NE 09:53:21 22° E 09:57:16 10° SE visible
16 Apr 3.0 11:27:46 10° NNE 11:32:51 71° WNW 11:37:54 10° SSW visible
17 Apr 5.7 09:13:51 10° ENE 09:15:28 11° E 09:17:05 10° E visible
17 Apr 3.4 10:50:26 10° NNE 10:55:30 63° ESE 11:00:32 10° S visible
18 Apr 4.5 10:13:21 10° NNE 10:17:57 33° E 10:22:31 10° SSE visible
19 Apr 5.4 09:36:47 10° NE 09:40:12 18° E 09:43:36 10° SE visible
19 Apr 3.0 11:14:45 10° NNE 11:19:53 87° WNW 11:24:58 10° SSW visible
20 Apr 3.8 10:37:30 10° NNE 10:42:28 50° E 10:47:23 10° S visible
21 Apr 4.9 10:00:33 10° NE 10:04:50 27° E 10:09:07 10° SSE visible
22 Apr 5.5 09:24:19 10° NE 09:27:01 14° E 09:29:43 10° ESE visible
22 Apr 3.2 11:01:45 10° NNE 11:06:53 77° ESE 11:11:57 10° S visible
23 Apr 4.2 10:24:35 10° NNE 10:29:23 40° E 10:34:10 10° SSE visible
